User: anonymous   Login
Location: Newark
(52.4787°S, 179.0532°W)
Time: 14:16:47
(UTC+00:00)
Language:

AO-91 - Orbit

View from above orbital plane
View from above orbital plane
View from above satellite
View from above satellite

Ground track
Ground track

The orbit data is extracted from the following two-line orbital elements,

1 43017U 17073E   19339.72476791 +.00000651 +00000-0 +56585-4 0  9996
2 43017 097.7246 254.4375 0256979 324.9832 033.4711 14.78730226110383
Epoch (UTC): 05 December 2019 17:23:39
Eccentricity: 0.0256979
inclination: 97.7246°
perigee height: 453 km
apogee height: 813 km
right ascension of ascending node: 254.4375°
argument of perigee: 324.9832°
revolutions per day: 14.78730226
mean anomaly at epoch: 33.4711°
orbit number at epoch: 11038

The dashed part of the orbit path shows where the satellite is in the earth's shadow,  

DLR